[Date Prev][Date Next][Thread Prev][Thread Next] - [Date Index][Thread Index][Author Index]
2 Line ISS Keps 6-28
- Subject: [sarex] 2 Line ISS Keps 6-28
- From: "Dave Larsen PhD" <doc@xxxxxxxxxxx>
- Date: Fri, 28 Jun 2002 03:08:27 -0700
ISS
1 25544U 98067A 02179.11984954 .00031232 00000-0 40860-3 0 6067
2 25544 51.6375 358.0813 0007433 288.0775 213.3517 15.58306000205738
----
Via the sarex mailing list at AMSAT.ORG courtesy of AMSAT-NA.
To unsubscribe, send "unsubscribe sarex" to Majordomo@amsat.org
AMSAT Home